Terminal Aerodrome Forecast
Issued by NWS

Home | Current Version | Previous Version | Text Only | Print | Product List | Glossary On
Versions: 1 2 3 4 5 6 7 8 9 10 11 12 13 14 15 16 17 18
000
FTUS44 KMAF 050525
TAFFST
TAF
KFST 050525Z 0506/0606 15011KT P6SM SCT090=

USA.gov is the U.S. government's official web portal to all federal, state and local government web resources and services.